Вернуться в каталог

COSMOS 1275 DEB

АктивенPO
NORAD 42205·DEBRIS·🇷🇺 Russia

Запущен Jun 4, 1981 с Plesetsk Cosmodrome

Loading…

Ближайшие Пролёты (ближайшие 24 часа)

TLE

УстаревающийSource: Space-Track

Эпоха: Sep 7, 2026, 17:12 UTC

1 42205U 81053TV  26250.71685045  .00000693  00000-0  66088-3 0  9990
2 42205  83.0316 252.7528 0113616 110.1658 251.1763 13.76345911640080

Отслеживайте COSMOS 1275 DEB в реальном времени с AllMySat

Download on the App Store